Regional Weather Roundup
Issued by NWS

Home | Current Version | Previous Version | Text Only | Print | Product List | Glossary Off
Versions: 1 2 3 4 5 6 7 8 9 10 11 12 13 14 15 16 17 18 19 20 21 22 23 24 25 26 27 28 29 30 31 32 33 34 35 36 37 38 39 40 41 42 43 44 45 46 47 48 49 50

669
ASUS43 KBIS 022302
RWRND

NORTH DAKOTA REGIONAL WEATHER ROUNDUP
NATIONAL WEATHER SERVICE BISMARCK ND
500 PM CST FRI DEC 02 2016

NOTE: "FAIR" INDICATES FEW OR NO CLOUDS BELOW 12,000 FEET WITH NO
SIGNIFICANT WEATHER AND/OR OBSTRUCTIONS TO VISIBILITY.


NDZ001>003-009>011-017-030000-
NORTHWEST NORTH DAKOTA

CITY           SKY/WX    TMP DP  RH WIND       PRES   REMARKS
WILLISTON      CLOUDY    31  25  78 S6        30.13F
MINOT          CLOUDY    28  24  85 SE9       30.17S WCI  19
MINOT AFB      CLOUDY    28  24  86 S10       30.16F WCI  18
$$

NDZ018>021-031>035-040>046-030000-
SOUTHWEST NORTH DAKOTA

CITY           SKY/WX    TMP DP  RH WIND       PRES   REMARKS
BISMARCK       CLOUDY    26  21  81 S6        30.24S WCI  19
DICKINSON      CLOUDY    29  25  85 S6        30.13F
GARRISON         N/A     27  23  85 S12       30.18S WCI  17
HETTINGER ARPT CLOUDY    29  25  85 S5        30.18S
$$

NDZ004>008-012>016-024-026-027-054-030000-
NORTHEAST NORTH DAKOTA

CITY           SKY/WX    TMP DP  RH WIND       PRES   REMARKS
GRAND FORKS    CLOUDY    32  23  69 W5        30.26S
GRND FRKS AFB  CLOUDY    31  23  72 SW5       30.26S
DEVILS LAKE    CLOUDY    28  21  75 SW9       30.24S WCI  19
$$

NDZ022-023-025-028>030-036>039-047>053-030000-
SOUTHEAST NORTH DAKOTA

CITY           SKY/WX    TMP DP  RH WIND       PRES   REMARKS
FARGO          CLOUDY    30  20  66 NW9       30.28S
JAMESTOWN      CLOUDY    26  18  71 W7        30.26R WCI  18
$$





USA.gov is the U.S. government's official web portal to all federal, state and local government web resources and services.